User: anonymous   Login
Location: Coleto Creek Park and Reservoir
(28.7196°N, 97.1740°W)
Time: 06:16:56
(UTC-06:00)
Language:

Hubble Space Telescope - Orbit

View from above orbital plane
View from above orbital plane
View from above satellite
View from above satellite

Ground track
Ground track

The orbit data is extracted from the following two-line orbital elements,

1 20580U 90037B   17324.72339730 +.00000720 +00000-0 +33347-4 0  9998
2 20580 028.4704 053.0516 0002957 058.9513 076.0770 15.08923964313861
Epoch (UTC): 20 November 2017 17:21:41
Eccentricity: 0.0002957
inclination: 28.4704°
perigee height: 537 km
apogee height: 541 km
right ascension of ascending node: 53.0516°
argument of perigee: 58.9513°
revolutions per day: 15.08923964
mean anomaly at epoch: 76.0770°
orbit number at epoch: 31386

The dashed part of the orbit path shows where the satellite is in the earth's shadow,  

DLR